This demonstration page uses our WeatherBlox Daily Observations layout. Learn more.

Left ArrowRight Arrow

39.08367, -84.50855

Hourly Observations for April 15, 2020

Temp ( °F °C ) Dew Point ( °F °C ) Humidity (%) Winds ( mph kmh ) Pressure ( in mb ) Visibility ( mi km ) Precip ( " mm )
1:53 am 01:53 Clear 30 -1.1 26 -3.3 85 85 Calm 30.19 1022 10 16 0.00 0.00
2:53 am 02:53 Clear 29 -1.7 26 -3.3 89 89 Calm 30.17 1022 10 16 0.00 0.00
3:53 am 03:53 Clear 28 -2.2 25 -3.9 88 88 Calm 30.16 1021 10 16 0.00 0.00
4:53 am 04:53 Clear 28 -2.2 25 -3.9 88 88 Calm 30.15 1021 10 16 0.00 0.00
5:53 am 05:53 Clear 27 -2.8 24 -4.4 89 89 Calm 30.14 1021 10 16 0.00 0.00
6:53 am 06:53 Clear 26 -3.3 25 -3.9 96 96 Calm 30.14 1021 9 14 0.00 0.00
7:53 am 07:53 Sunny 28 -2.2 27 -2.8 96 96 Calm 30.14 1021 8 13 0.00 0.00
8:53 am 08:53 Sunny 34 1.1 29 -1.7 82 82 Calm 30.13 1020 10 16 0.00 0.00
9:53 am 09:53 Sunny 42 5.6 27 -2.8 55 55 S 9 15 30.11 1020 10 16 0.00 0.00
10:53 am 10:53 Sunny 48 8.9 21 -6.1 34 34 SW 17 28 30.09 1019 10 16 0.00 0.00
12:54 pm 12:54 Mostly Sunny 53 11.7 23 -5 31 31 SSW 17 28 30.03 1017 10 16 0.00 0.00
1:53 pm 13:53 Partly Cloudy 53 11.7 22 -5.6 30 30 SSW 17 28 30.00 1016 10 16 0.00 0.00
4:53 pm 16:53 Cloudy 49 9.4 30 -1.1 48 48 W 20 31 30.02 1017 10 16 0.00 0.00
5:53 pm 17:53 Mostly Cloudy 46 7.8 34 1.1 63 63 WNW 12 19 30.06 1018 10 16 0.00 0.00
6:53 pm 18:53 Cloudy 44 6.7 35 1.7 71 71 VRB 6 9 30.10 1019 10 16 0.00 0.00
7:53 pm 19:53 Mostly Cloudy 43 6.1 27 -2.8 53 53 NNW 9 15 30.11 1020 10 16 0.00 0.00
8:53 pm 20:53 Clear 40 4.4 23 -5 51 51 NNW 8 13 30.14 1021 10 16 0.00 0.00
9:53 pm 21:53 Clear 39 3.9 22 -5.6 50 50 NW 6 9 30.17 1022 10 16 0.00 0.00
10:53 pm 22:53 Clear 37 2.8 23 -5 57 57 N 8 13 30.20 1023 10 16 0.00 0.00
11:53 pm 23:53 Clear 36 2.2 23 -5 59 59 NNW 7 11 30.22 1024 10 16 0.00 0.00

Powered by AerisWeather